Weather History for Truckee-Tahoe, CA

Change the Weather History Date:

Tuesday, February 19, 2013

  Actual Average Record
Temperature  
Mean Temperature 28 °F -  
Max Temperature 39 °F 43 °F 65 °F (1950)
Min Temperature 17 °F 18 °F -2 °F (1990)
Degree Days  
Heating Degree Days 37    
Moisture  
Dew Point 18 °F    
Average Humidity 74    
Maximum Humidity 93    
Minimum Humidity 49    
Precipitation  
Precipitation 0.02 in - - ()
Snow  
Snow 0.00 in - - ()
Snow Depth 4.00 in    
Sea Level Pressure  
Sea Level Pressure 29.66 in    
Wind  
Wind Speed 10 mph (SW)    
Max Wind Speed 18 mph    
Max Gust Speed 30 mph    
Visibility 7 miles    
Events Snow    
Averages and records for this station are not official NWS values.
T = Trace of Precipitation, MM = Missing Value Source: NWS Daily Summary

Daily Weather History Graph

Daily Weather History Graph

Search for Another Location

Airport:

Trip Planner

Search our weather history database for the weather conditions in past years. The results will help you decide how hot, cold, wet, or windy it might be!

Date:

Astronomy

Feb. 19, 2013 Rise Set
Actual Time 6:46 AM PST 5:42 PM PST
Civil Twilight 6:19 AM PST 6:09 PM PST
Nautical Twilight 5:48 AM PST 6:40 PM PST
Astronomical Twilight 5:17 AM PST 7:12 PM PST
Moon 12:19 PM PST 2:21 AM PST
Length of Visible Light 11h 50m
Length of Day
10h 55m
Waxing Gibbous, 68% of the Moon is Illuminated
Feb 19
Waxing Gibbous
Feb 25
Full
Mar 4
Last Quarter
Mar 11
New
Mar 19
First Quarter

Hourly Weather History & Observations

Time (PST) Temp. Windchill Dew Point Humidity Pressure Visibility Wind Dir Wind Speed Gust Speed Precip Events Conditions
12:15 AM 32.0 °F 24.2 °F 17.6 °F 55% 29.79 in 10.0 mi SSW 9.2 mph 23.0 mph N/A   Mostly Cloudy
12:35 AM 32.0 °F 25.6 °F 19.4 °F 60% 29.79 in 10.0 mi South 6.9 mph - N/A   Mostly Cloudy
12:55 AM 32.0 °F 22.5 °F 21.2 °F 64% 29.78 in 6.0 mi South 12.7 mph 20.7 mph N/A   Overcast
1:15 AM 30.2 °F 19.8 °F 23.0 °F 75% 29.78 in 3.0 mi SSW 13.8 mph 17.3 mph N/A Snow Light Snow
1:35 AM 32.0 °F 20.8 °F 21.2 °F 64% 29.77 in 5.0 mi SSW 17.3 mph 26.5 mph N/A Snow Light Snow
1:55 AM 30.2 °F 19.8 °F 23.0 °F 75% 29.74 in 5.0 mi SW 13.8 mph 21.9 mph N/A Snow Light Snow
2:15 AM 30.2 °F 24.3 °F 24.8 °F 80% 29.73 in 3.0 mi SW 5.8 mph - N/A Snow Light Snow
2:35 AM 28.4 °F 17.5 °F 26.6 °F 93% 29.72 in 0.8 mi SW 13.8 mph - N/A Snow Light Snow
2:55 AM 30.2 °F 20.2 °F 26.6 °F 86% 29.73 in 2.0 mi SW 12.7 mph 17.3 mph 0.01 in Snow Light Snow
3:15 AM 32.0 °F 21.6 °F 24.8 °F 75% 29.73 in 6.0 mi SSW 15.0 mph 20.7 mph N/A Snow Light Snow
3:35 AM 32.0 °F 22.5 °F 23.0 °F 69% 29.73 in 8.0 mi SW 12.7 mph 18.4 mph N/A Snow Light Snow
3:55 AM 32.0 °F 20.5 °F 19.4 °F 60% 29.72 in 10.0 mi SW 18.4 mph 27.6 mph N/A   Mostly Cloudy
4:15 AM 28.4 °F 18.0 °F 17.6 °F 64% 29.72 in 10.0 mi SSW 12.7 mph - N/A   Mostly Cloudy
4:35 AM 28.4 °F 17.5 °F 14.0 °F 55% 29.71 in 10.0 mi South 13.8 mph 19.6 mph N/A   Scattered Clouds
4:55 AM 28.4 °F 17.0 °F 14.0 °F 55% 29.71 in 10.0 mi SSW 15.0 mph 20.7 mph N/A   Mostly Cloudy
5:15 AM 28.4 °F 19.7 °F 14.0 °F 55% 29.72 in 10.0 mi SSW 9.2 mph - N/A   Mostly Cloudy
5:35 AM 26.6 °F 16.2 °F 15.8 °F 64% 29.72 in 10.0 mi SW 11.5 mph - N/A   Mostly Cloudy
6:55 AM 24.8 °F 12.4 °F 14.0 °F 64% 29.69 in 10.0 mi SW 15.0 mph 18.4 mph N/A   Mostly Cloudy
7:55 AM 24.8 °F 11.5 °F 10.4 °F 54% 29.68 in 10.0 mi WSW 17.3 mph 20.7 mph N/A   Mostly Cloudy
8:45 AM 26.6 °F 13.8 °F 14.0 °F 59% 29.68 in 10.0 mi South 17.3 mph 23.0 mph N/A Snow Light Snow
9:45 AM 28.4 °F 17.5 °F 15.8 °F 59% 29.65 in 3.0 mi South 13.8 mph 18.4 mph N/A Snow Light Snow
10:45 AM 28.4 °F 17.0 °F 17.6 °F 64% 29.63 in 2.0 mi SSW 15.0 mph 24.2 mph N/A Snow Light Snow Showers
11:50 AM 30.2 °F 19.8 °F 14.0 °F 51% 29.60 in 10.0 mi South 13.8 mph 27.6 mph N/A   Mostly Cloudy
12:45 PM 28.4 °F 17.5 °F 17.6 °F 64% 29.58 in 3.0 mi SW 13.8 mph 29.9 mph N/A Snow Light Snow
1:45 PM 26.6 °F 16.8 °F 19.4 °F 74% 29.57 in 4.0 mi SSW 10.4 mph 16.1 mph N/A Snow Light Snow
2:45 PM 26.6 °F 18.2 °F 19.4 °F 74% 29.58 in 3.0 mi SW 8.1 mph - N/A Snow Light Snow
4:45 PM 39.2 °F 35.9 °F 21.2 °F 49% 29.57 in 1.0 mi WNW 4.6 mph - N/A   Unknown
4:55 PM 24.8 °F 16.9 °F 23.0 °F 93% 29.57 in 1.2 mi NNW 6.9 mph - N/A Snow Light Snow
5:15 PM 24.8 °F 16.9 °F 19.4 °F 80% 29.57 in 2.5 mi West 6.9 mph - N/A Snow Light Snow
5:35 PM 24.8 °F 15.3 °F 17.6 °F 74% 29.57 in 10.0 mi West 9.2 mph - N/A Snow Light Snow
5:55 PM 23.0 °F - 17.6 °F 80% 29.58 in 4.0 mi Calm Calm - N/A Snow Light Snow
6:15 PM 23.0 °F 17.0 °F 19.4 °F 86% 29.59 in 5.0 mi West 4.6 mph - N/A Snow Light Snow
6:35 PM 23.0 °F 17.0 °F 19.4 °F 86% 29.59 in 2.5 mi West 4.6 mph - N/A Snow Light Snow
6:55 PM 23.0 °F - 19.4 °F 86% 29.59 in 2.5 mi Calm Calm - N/A Snow Light Snow
7:15 PM 23.0 °F - 19.4 °F 86% 29.59 in 4.0 mi Calm Calm - N/A Snow Light Snow
7:35 PM 23.0 °F 18.4 °F 19.4 °F 86% 29.59 in 5.0 mi ESE 3.5 mph - N/A Snow Light Snow
7:55 PM 23.0 °F 17.0 °F 19.4 °F 86% 29.59 in 10.0 mi North 4.6 mph - 0.01 in Snow Light Snow
8:15 PM 23.0 °F - 17.6 °F 80% 29.60 in 10.0 mi Calm Calm - N/A Snow Light Snow
8:35 PM 23.0 °F - 17.6 °F 80% 29.61 in 10.0 mi Calm Calm - N/A   Overcast
8:55 PM 21.2 °F 13.6 °F 17.6 °F 86% 29.61 in 10.0 mi NNW 5.8 mph - N/A   Scattered Clouds
9:15 PM 19.4 °F 12.8 °F 17.6 °F 93% 29.62 in 10.0 mi NNW 4.6 mph - N/A   Scattered Clouds
9:35 PM 19.4 °F - 17.6 °F 93% 29.63 in 10.0 mi Calm Calm - N/A   Overcast
9:55 PM 21.2 °F 14.9 °F 15.8 °F 80% 29.63 in 10.0 mi NNW 4.6 mph - N/A   Overcast
10:15 PM 21.2 °F - 15.8 °F 80% 29.64 in 10.0 mi Calm Calm - N/A   Overcast
10:35 PM 21.2 °F 16.4 °F 15.8 °F 80% 29.65 in 10.0 mi NNW 3.5 mph - N/A   Overcast
10:55 PM 19.4 °F - 15.8 °F 86% 29.65 in 10.0 mi Calm Calm - N/A   Overcast
11:15 PM 17.6 °F 10.7 °F 15.8 °F 93% 29.66 in 10.0 mi ESE 4.6 mph - N/A Snow Light Snow
11:35 PM 19.4 °F - 15.8 °F 86% 29.67 in 10.0 mi Calm Calm - N/A   Overcast
11:55 PM 19.4 °F - 17.6 °F 93% 29.68 in 9.0 mi Calm Calm - N/A Snow Light Snow